| time (UTC) | temp F | wind direction | speed knots | gust knots | rain 1hr in | rain 24hr in | rain mn in | humidity % | barometer mb |
| 20260905004619 | 75 | 197 | 0.9 | 0.9 | 0.00 | 0.00 | 0.00 | 37 | 1028.1 |
| 20260905004115 | 76 | 216 | 0.0 | 0.0 | 0.00 | 0.00 | 0.00 | 37 | 1028.3 |
| 20260905003610 | 76 | 21 | 1.7 | 1.7 | 0.00 | 0.00 | 0.00 | 36 | 1028.3 |
| 20260905003106 | 76 | 70 | 2.6 | 2.6 | 0.00 | 0.00 | 0.00 | 36 | 1028.4 |
| 20260905002601 | 77 | 85 | 0.9 | 1.7 | 0.00 | 0.00 | 0.00 | 35 | 1028.4 |
| 20260905002056 | 77 | 2 | 1.7 | 1.7 | 0.00 | 0.00 | 0.00 | 35 | 1028.3 |
| 20260905001551 | 77 | 46 | 2.6 | 2.6 | 0.00 | 0.00 | 0.00 | 35 | 1028.3 |
| 20260905001051 | 78 | 308 | 3.5 | 4.3 | 0.00 | 0.00 | 0.00 | 34 | 1028.0 |
| 20260905000546 | 78 | 15 | 5.2 | 6.1 | 0.00 | 0.00 | 0.00 | 34 | 1028.1 |
| 20260905000042 | 79 | 359 | 2.6 | 4.3 | 0.00 | 0.00 | 0.00 | 33 | 1028.5 |
| 20260904235536 | 79 | 219 | 1.7 | 1.7 | 0.00 | 0.00 | 0.00 | 33 | 1028.1 |
| 20260904235036 | 79 | 272 | 2.6 | 5.2 | 0.00 | 0.00 | 0.00 | 33 | 1028.3 |
| 20260904234536 | 78 | 32 | 3.5 | 5.2 | 0.00 | 0.00 | 0.00 | 34 | 1028.1 |
| 20260904234032 | 79 | 12 | 1.7 | 2.6 | 0.00 | 0.00 | 0.00 | 32 | 1028.0 |
| 20260904233527 | 80 | 176 | 1.7 | 1.7 | 0.00 | 0.00 | 0.00 | 31 | 1028.1 |
| 20260904233023 | 79 | 355 | 1.7 | 1.7 | 0.00 | 0.00 | 0.00 | 31 | 1028.1 |
| 20260904232520 | 80 | 222 | 2.6 | 2.6 | 0.00 | 0.00 | 0.00 | 31 | 1027.8 |
| 20260904232016 | 80 | 238 | 2.6 | 2.6 | 0.00 | 0.00 | 0.00 | 31 | 1028.0 |
| 20260904231512 | 78 | 241 | 0.0 | 0.9 | 0.00 | 0.00 | 0.00 | 31 | 1028.0 |
| 20260904231006 | 79 | 100 | 2.6 | 4.3 | 0.00 | 0.00 | 0.00 | 31 | 1028.0 |
| 20260904230500 | 79 | 7 | 6.1 | 7.8 | 0.00 | 0.00 | 0.00 | 31 | 1027.8 |
| 20260904225955 | 79 | 7 | 6.1 | 7.8 | 0.00 | 0.00 | 0.00 | 31 | 1027.8 |
| 20260904225453 | 78 | 357 | 2.6 | 4.3 | 0.00 | 0.00 | 0.00 | 31 | 1027.9 |
| 20260904224952 | 78 | 176 | 0.9 | 0.9 | 0.00 | 0.00 | 0.00 | 32 | 1027.9 |
| 20260904224448 | 79 | 241 | 2.6 | 4.3 | 0.00 | 0.00 | 0.00 | 31 | 1027.9 |
| 20260904223948 | 80 | 303 | 0.9 | 1.7 | 0.00 | 0.00 | 0.00 | 30 | 1027.9 |
| 20260904223447 | 80 | 3 | 5.2 | 7.0 | 0.00 | 0.00 | 0.00 | 30 | 1027.5 |
| 20260904222943 | 80 | 82 | 1.7 | 2.6 | 0.00 | 0.00 | 0.00 | 30 | 1027.8 |
| 20260904222439 | 80 | 146 | 1.7 | 1.7 | 0.00 | 0.00 | 0.00 | 30 | 1027.6 |
| 20260904221938 | 79 | 135 | 3.5 | 5.2 | 0.00 | 0.00 | 0.00 | 31 | 1027.8 |
| 20260904221432 | 79 | 301 | 1.7 | 1.7 | 0.00 | 0.00 | 0.00 | 31 | 1027.6 |
| 20260904220928 | 80 | 254 | 0.9 | 1.7 | 0.00 | 0.00 | 0.00 | 30 | 1027.6 |
| 20260904220428 | 79 | 7 | 0.9 | 1.7 | 0.00 | 0.00 | 0.00 | 31 | 1027.9 |
| 20260904215923 | 79 | 221 | 0.0 | 0.9 | 0.00 | 0.00 | 0.00 | 30 | 1027.8 |
| 20260904215418 | 79 | 70 | 1.7 | 2.6 | 0.00 | 0.00 | 0.00 | 30 | 1027.9 |
| 20260904214914 | 82 | 265 | 0.0 | 0.9 | 0.00 | 0.00 | 0.00 | 29 | 1028.1 |
| 20260904214410 | 82 | 133 | 4.3 | 6.1 | 0.00 | 0.00 | 0.00 | 29 | 1027.8 |
| 20260904213909 | 81 | 114 | 3.5 | 5.2 | 0.00 | 0.00 | 0.00 | 29 | 1027.9 |
| 20260904213403 | 81 | 126 | 5.2 | 6.1 | 0.00 | 0.00 | 0.00 | 28 | 1028.0 |
| 20260904212859 | 82 | 99 | 3.5 | 5.2 | 0.00 | 0.00 | 0.00 | 29 | 1028.0 |
| 20260904212358 | 81 | 214 | 2.6 | 2.6 | 0.00 | 0.00 | 0.00 | 29 | 1028.0 |
| 20260904211854 | 80 | 316 | 5.2 | 6.1 | 0.00 | 0.00 | 0.00 | 30 | 1028.0 |
| 20260904211349 | 78 | 181 | 0.0 | 0.9 | 0.00 | 0.00 | 0.00 | 31 | 1027.9 |
| 20260904210844 | 79 | 210 | 3.5 | 5.2 | 0.00 | 0.00 | 0.00 | 30 | 1028.1 |
| 20260904210344 | 80 | 195 | 4.3 | 5.2 | 0.00 | 0.00 | 0.00 | 29 | 1028.3 |
| 20260904205840 | 80 | 182 | 0.9 | 1.7 | 0.00 | 0.00 | 0.00 | 30 | 1028.1 |
| 20260904205335 | 80 | 211 | 2.6 | 4.3 | 0.00 | 0.00 | 0.00 | 29 | 1028.1 |
| 20260904204832 | 79 | 282 | 0.9 | 0.9 | 0.00 | 0.00 | 0.00 | 29 | 1028.1 |
| 20260904204327 | 78 | 251 | 2.6 | 2.6 | 0.00 | 0.00 | 0.00 | 31 | 1028.3 |
| 20260904203824 | 80 | 4 | 3.5 | 4.3 | 0.00 | 0.00 | 0.00 | 29 | 1028.4 |
| 20260904203320 | 80 | 117 | 1.7 | 2.6 | 0.00 | 0.00 | 0.00 | 29 | 1028.4 |
| 20260904202815 | 80 | 165 | 0.0 | 0.9 | 0.00 | 0.00 | 0.00 | 30 | 1028.3 |
| 20260904202311 | 81 | 11 | 5.2 | 8.7 | 0.00 | 0.00 | 0.00 | 29 | 1028.4 |
| 20260904201807 | 81 | 254 | 0.9 | 1.7 | 0.00 | 0.00 | 0.00 | 29 | 1028.8 |
| 20260904201306 | 82 | 340 | 6.1 | 7.8 | 0.00 | 0.00 | 0.00 | 29 | 1028.5 |
| 20260904200801 | 80 | 167 | 1.7 | 1.7 | 0.00 | 0.00 | 0.00 | 29 | 1028.8 |
| 20260904200256 | 79 | 254 | 2.6 | 4.3 | 0.00 | 0.00 | 0.00 | 29 | 1028.6 |
| 20260904195755 | 77 | 349 | 1.7 | 1.7 | 0.00 | 0.00 | 0.00 | 30 | 1028.9 |
| 20260904195254 | 78 | 3 | 6.1 | 9.6 | 0.00 | 0.00 | 0.00 | 30 | 1028.9 |
| 20260904194749 | 77 | 135 | 0.9 | 1.7 | 0.00 | 0.00 | 0.00 | 31 | 1029.1 |
| 20260904194248 | 78 | 125 | 2.6 | 4.3 | 0.00 | 0.00 | 0.00 | 30 | 1029.0 |
| 20260904193743 | 77 | 46 | 2.6 | 2.6 | 0.00 | 0.00 | 0.00 | 31 | 1028.9 |
| 20260904193239 | 77 | 230 | 0.0 | 0.9 | 0.00 | 0.00 | 0.00 | 31 | 1028.9 |
| 20260904192734 | 77 | 330 | 3.5 | 5.2 | 0.00 | 0.00 | 0.00 | 31 | 1028.6 |
| 20260904192229 | 78 | 332 | 2.6 | 5.2 | 0.00 | 0.00 | 0.00 | 31 | 1028.9 |
| 20260904191721 | 78 | 308 | 2.6 | 4.3 | 0.00 | 0.00 | 0.00 | 30 | 1028.8 |
| 20260904191216 | 78 | 148 | 0.9 | 1.7 | 0.00 | 0.00 | 0.00 | 31 | 1028.9 |
| 20260904190713 | 80 | 2 | 3.5 | 5.2 | 0.00 | 0.00 | 0.00 | 30 | 1028.8 |
| 20260904190208 | 80 | 220 | 3.5 | 5.2 | 0.00 | 0.00 | 0.00 | 29 | 1028.6 |
| 20260904185705 | 80 | 285 | 5.2 | 7.0 | 0.00 | 0.00 | 0.00 | 29 | 1028.9 |
| 20260904185159 | 78 | 29 | 2.6 | 5.2 | 0.00 | 0.00 | 0.00 | 30 | 1028.9 |
| 20260904184658 | 79 | 16 | 5.2 | 7.0 | 0.00 | 0.00 | 0.00 | 29 | 1028.8 |
| 20260904184154 | 79 | 266 | 3.5 | 5.2 | 0.00 | 0.00 | 0.00 | 29 | 1029.0 |
| 20260904183649 | 80 | 204 | 0.9 | 0.9 | 0.00 | 0.00 | 0.00 | 28 | 1029.1 |
| 20260904183149 | 78 | 211 | 0.9 | 0.9 | 0.00 | 0.00 | 0.00 | 29 | 1029.0 |
| 20260904182644 | 80 | 154 | 0.9 | 0.9 | 0.00 | 0.00 | 0.00 | 29 | 1029.3 |
| 20260904182139 | 80 | 83 | 2.6 | 2.6 | 0.00 | 0.00 | 0.00 | 29 | 1029.1 |
| 20260904181635 | 80 | 28 | 5.2 | 6.1 | 0.00 | 0.00 | 0.00 | 28 | 1029.5 |
| 20260904181130 | 80 | 222 | 1.7 | 2.6 | 0.00 | 0.00 | 0.00 | 29 | 1029.1 |
| 20260904180625 | 78 | 132 | 0.9 | 1.7 | 0.00 | 0.00 | 0.00 | 28 | 1029.3 |
| 20260904180120 | 77 | 312 | 4.3 | 6.1 | 0.00 | 0.00 | 0.00 | 29 | 1029.5 |
| 20260904175619 | 77 | 274 | 2.6 | 2.6 | 0.00 | 0.00 | 0.00 | 29 | 1029.3 |
| 20260904175118 | 78 | 67 | 4.3 | 5.2 | 0.00 | 0.00 | 0.00 | 29 | 1029.1 |
| 20260904174613 | 79 | 32 | 3.5 | 5.2 | 0.00 | 0.00 | 0.00 | 28 | 1029.4 |
| 20260904174109 | 78 | 63 | 0.9 | 1.7 | 0.00 | 0.00 | 0.00 | 30 | 1029.4 |
| 20260904173609 | 76 | 198 | 0.9 | 1.7 | 0.00 | 0.00 | 0.00 | 28 | 1029.3 |
| 20260904173105 | 78 | 339 | 2.6 | 6.1 | 0.00 | 0.00 | 0.00 | 29 | 1029.4 |
| 20260904172601 | 77 | 315 | 2.6 | 4.3 | 0.00 | 0.00 | 0.00 | 30 | 1029.5 |
| 20260904172100 | 77 | 359 | 1.7 | 1.7 | 0.00 | 0.00 | 0.00 | 30 | 1029.8 |
| 20260904171555 | 77 | 194 | 0.9 | 1.7 | 0.00 | 0.00 | 0.00 | 29 | 1029.5 |
| 20260904171051 | 76 | 199 | 0.9 | 1.7 | 0.00 | 0.00 | 0.00 | 29 | 1029.5 |
| 20260904170546 | 76 | 82 | 0.9 | 1.7 | 0.00 | 0.00 | 0.00 | 28 | 1029.5 |
| 20260904170042 | 77 | 204 | 0.0 | 0.0 | 0.00 | 0.00 | 0.00 | 28 | 1029.8 |
| 20260904165540 | 77 | 169 | 2.6 | 4.3 | 0.00 | 0.00 | 0.00 | 28 | 1029.7 |
| 20260904165040 | 76 | 170 | 2.6 | 4.3 | 0.00 | 0.00 | 0.00 | 29 | 1029.9 |
| 20260904151134 | 69 | 197 | 0.9 | 0.9 | 0.00 | 0.00 | 0.00 | 36 | 1029.4 |
| 20260904150630 | 69 | 197 | 0.9 | 0.9 | 0.00 | 0.00 | 0.00 | 36 | 1029.4 |
| 20260904150126 | 68 | 187 | 0.9 | 0.9 | 0.00 | 0.00 | 0.00 | 36 | 1029.3 |
| 20260904145624 | 67 | 191 | 0.0 | 0.0 | 0.00 | 0.00 | 0.00 | 39 | 1029.3 |
| 20260904145119 | 65 | 173 | 0.9 | 0.9 | 0.00 | 0.00 | 0.00 | 40 | 1029.3 |
| 20260904144615 | 63 | 209 | 0.0 | 0.0 | 0.00 | 0.00 | 0.00 | 43 | 1029.3 |
| 20260904144111 | 62 | 196 | 0.0 | 0.0 | 0.00 | 0.00 | 0.00 | 44 | 1029.3 |
| 20260904143607 | 61 | 207 | 0.0 | 0.0 | 0.00 | 0.00 | 0.00 | 50 | 1029.4 |
| 20260904143103 | 60 | 212 | 0.0 | 0.0 | 0.00 | 0.00 | 0.00 | 50 | 1029.7 |
| 20260904142600 | 59 | 217 | 0.0 | 0.0 | 0.00 | 0.00 | 0.00 | 52 | 1029.4 |
| 20260904142100 | 59 | 220 | 0.0 | 0.0 | 0.00 | 0.00 | 0.00 | 52 | 1029.1 |
| 20260904141555 | 59 | 192 | 0.9 | 0.9 | 0.00 | 0.00 | 0.00 | 48 | 1029.3 |
| 20260904141050 | 57 | 191 | 0.9 | 0.9 | 0.00 | 0.00 | 0.00 | 52 | 1029.3 |
| 20260904140546 | 56 | 207 | 0.0 | 0.0 | 0.00 | 0.00 | 0.00 | 53 | 1029.0 |
| 20260904140040 | 55 | 217 | 0.0 | 0.0 | 0.00 | 0.00 | 0.00 | 55 | 1029.4 |
| 20260904135539 | 55 | 209 | 0.0 | 0.0 | 0.00 | 0.00 | 0.00 | 53 | 1029.3 |
| 20260904135035 | 54 | 205 | 0.0 | 0.0 | 0.00 | 0.00 | 0.00 | 55 | 1029.0 |
| 20260904134531 | 53 | 208 | 0.0 | 0.0 | 0.00 | 0.00 | 0.00 | 57 | 1029.1 |
| 20260904134025 | 52 | 194 | 0.0 | 0.9 | 0.00 | 0.00 | 0.00 | 56 | 1029.1 |
| 20260904133520 | 50 | 168 | 0.9 | 0.9 | 0.00 | 0.00 | 0.00 | 59 | 1029.0 |
| 20260904133016 | 50 | 210 | 0.0 | 0.0 | 0.00 | 0.00 | 0.00 | 59 | 1029.1 |
| 20260904132516 | 49 | 184 | 0.9 | 0.9 | 0.00 | 0.00 | 0.00 | 59 | 1028.6 |
| 20260904132016 | 48 | 194 | 0.0 | 0.9 | 0.00 | 0.00 | 0.00 | 61 | 1028.8 |
| 20260904131516 | 48 | 235 | 0.0 | 0.0 | 0.00 | 0.00 | 0.00 | 62 | 1028.8 |
| 20260904131012 | 48 | 201 | 0.9 | 0.9 | 0.00 | 0.00 | 0.00 | 63 | 1028.8 |
| 20260904130511 | 48 | 195 | 0.9 | 0.9 | 0.00 | 0.00 | 0.00 | 60 | 1028.5 |
| 20260904130005 | 48 | 220 | 0.0 | 0.0 | 0.00 | 0.00 | 0.00 | 62 | 1028.5 |
| 20260904125502 | 48 | 227 | 0.0 | 0.0 | 0.00 | 0.00 | 0.00 | 61 | 1028.4 |
| 20260904124956 | 49 | 215 | 0.0 | 0.0 | 0.00 | 0.00 | 0.00 | 60 | 1028.3 |
| 20260904124452 | 48 | 199 | 0.9 | 0.9 | 0.00 | 0.00 | 0.00 | 61 | 1028.4 |
| 20260904123948 | 48 | 199 | 0.0 | 0.9 | 0.00 | 0.00 | 0.00 | 62 | 1028.4 |
| 20260904123442 | 48 | 187 | 0.9 | 0.9 | 0.00 | 0.00 | 0.00 | 62 | 1028.3 |
| 20260904122938 | 48 | 190 | 0.9 | 0.9 | 0.00 | 0.00 | 0.00 | 61 | 1028.3 |
| 20260904122437 | 48 | 206 | 0.0 | 0.9 | 0.00 | 0.00 | 0.00 | 61 | 1028.3 |
| 20260904121932 | 48 | 204 | 0.0 | 0.0 | 0.00 | 0.00 | 0.00 | 62 | 1028.1 |
| 20260904121428 | 48 | 211 | 0.0 | 0.0 | 0.00 | 0.00 | 0.00 | 62 | 1028.3 |
| 20260904120925 | 48 | 225 | 0.0 | 0.0 | 0.00 | 0.00 | 0.00 | 62 | 1028.1 |
| 20260904120420 | 48 | 197 | 0.0 | 0.0 | 0.00 | 0.00 | 0.00 | 63 | 1028.1 |
| 20260904115915 | 48 | 216 | 0.0 | 0.0 | 0.00 | 0.00 | 0.00 | 62 | 1028.1 |
| 20260904115410 | 48 | 216 | 0.0 | 0.0 | 0.00 | 0.00 | 0.00 | 63 | 1028.1 |
| 20260904114904 | 48 | 246 | 0.9 | 0.9 | 0.00 | 0.00 | 0.00 | 62 | 1027.9 |
| 20260904114359 | 48 | 215 | 0.0 | 0.0 | 0.00 | 0.00 | 0.00 | 63 | 1027.8 |
| 20260904113855 | 49 | 216 | 0.0 | 0.0 | 0.00 | 0.00 | 0.00 | 62 | 1028.0 |
| 20260904113354 | 49 | 197 | 0.9 | 0.9 | 0.00 | 0.00 | 0.00 | 61 | 1027.9 |
| 20260904112854 | 49 | 199 | 0.0 | 0.0 | 0.00 | 0.00 | 0.00 | 61 | 1028.0 |
| 20260904112350 | 49 | 215 | 0.0 | 0.0 | 0.00 | 0.00 | 0.00 | 60 | 1027.8 |
| 20260904111845 | 49 | 201 | 0.0 | 0.9 | 0.00 | 0.00 | 0.00 | 61 | 1027.9 |
| 20260904111341 | 49 | 204 | 0.0 | 0.0 | 0.00 | 0.00 | 0.00 | 62 | 1027.9 |
| 20260904110836 | 49 | 219 | 0.0 | 0.0 | 0.00 | 0.00 | 0.00 | 62 | 1027.6 |
| 20260904110335 | 49 | 219 | 0.0 | 0.0 | 0.00 | 0.00 | 0.00 | 61 | 1027.9 |
| 20260904105830 | 49 | 201 | 0.9 | 0.9 | 0.00 | 0.00 | 0.00 | 61 | 1027.8 |
| 20260904105325 | 50 | 219 | 0.0 | 0.0 | 0.00 | 0.00 | 0.00 | 59 | 1027.8 |
| 20260904104820 | 50 | 118 | 2.6 | 2.6 | 0.00 | 0.00 | 0.00 | 58 | 1027.5 |
| 20260904104316 | 49 | 156 | 0.0 | 0.9 | 0.00 | 0.00 | 0.00 | 60 | 1027.8 |
| 20260904103813 | 48 | 217 | 0.0 | 0.0 | 0.00 | 0.00 | 0.00 | 62 | 1027.6 |
| 20260904103312 | 49 | 205 | 0.0 | 0.0 | 0.00 | 0.00 | 0.00 | 61 | 1027.6 |
| 20260904102808 | 49 | 205 | 0.0 | 0.0 | 0.00 | 0.00 | 0.00 | 60 | 1027.5 |
| 20260904102306 | 49 | 216 | 0.0 | 0.0 | 0.00 | 0.00 | 0.00 | 61 | 1027.5 |
| 20260904101759 | 49 | 198 | 0.9 | 0.9 | 0.00 | 0.00 | 0.00 | 62 | 1027.1 |
| 20260904101255 | 49 | 201 | 0.9 | 0.9 | 0.00 | 0.00 | 0.00 | 61 | 1027.4 |
| 20260904100751 | 49 | 214 | 0.0 | 0.0 | 0.00 | 0.00 | 0.00 | 61 | 1027.5 |
| 20260904100247 | 50 | 219 | 0.0 | 0.0 | 0.00 | 0.00 | 0.00 | 60 | 1027.4 |
| 20260904095746 | 49 | 209 | 0.0 | 0.0 | 0.00 | 0.00 | 0.00 | 63 | 1027.3 |
| 20260904095241 | 49 | 169 | 0.9 | 0.9 | 0.00 | 0.00 | 0.00 | 62 | 1027.3 |
| 20260904094736 | 50 | 213 | 0.0 | 0.9 | 0.00 | 0.00 | 0.00 | 60 | 1027.1 |
| 20260904094231 | 51 | 202 | 0.9 | 0.9 | 0.00 | 0.00 | 0.00 | 57 | 1027.4 |
| 20260904093727 | 49 | 210 | 0.0 | 0.0 | 0.00 | 0.00 | 0.00 | 61 | 1027.1 |
| 20260904093227 | 50 | 219 | 0.0 | 0.0 | 0.00 | 0.00 | 0.00 | 62 | 1027.3 |
| 20260904092723 | 50 | 207 | 0.0 | 0.0 | 0.00 | 0.00 | 0.00 | 62 | 1027.3 |
| 20260904092219 | 50 | 191 | 0.9 | 0.9 | 0.00 | 0.00 | 0.00 | 61 | 1027.1 |
| 20260904091715 | 50 | 205 | 0.0 | 0.0 | 0.00 | 0.00 | 0.00 | 62 | 1027.1 |
| 20260904091209 | 50 | 220 | 0.0 | 0.0 | 0.00 | 0.00 | 0.00 | 63 | 1027.1 |
| 20260904090705 | 50 | 173 | 0.9 | 0.9 | 0.00 | 0.00 | 0.00 | 64 | 1027.4 |
| 20260904090201 | 50 | 224 | 0.0 | 0.0 | 0.00 | 0.00 | 0.00 | 64 | 1027.1 |
| 20260904085656 | 50 | 219 | 0.0 | 0.0 | 0.00 | 0.00 | 0.00 | 63 | 1026.9 |
| 20260904085156 | 50 | 208 | 0.0 | 0.0 | 0.00 | 0.00 | 0.00 | 62 | 1027.1 |
| 20260904084651 | 50 | 214 | 0.0 | 0.0 | 0.00 | 0.00 | 0.00 | 61 | 1027.0 |
| 20260904084147 | 50 | 165 | 1.7 | 1.7 | 0.00 | 0.00 | 0.00 | 62 | 1027.1 |
| 20260904083643 | 50 | 140 | 2.6 | 2.6 | 0.00 | 0.00 | 0.00 | 63 | 1027.0 |
| 20260904083138 | 51 | 221 | 0.0 | 0.0 | 0.00 | 0.00 | 0.00 | 63 | 1027.0 |
| 20260904060932 | 55 | 206 | 0.0 | 0.0 | 0.00 | 0.00 | 0.00 | 56 | 1027.8 |
| 20260904060428 | 55 | 206 | 0.0 | 0.0 | 0.00 | 0.00 | 0.00 | 56 | 1027.8 |
| 20260904055923 | 55 | 206 | 0.0 | 0.0 | 0.00 | 0.00 | 0.00 | 56 | 1027.8 |
| 20260904055419 | 55 | 193 | 0.0 | 0.9 | 0.00 | 0.00 | 0.00 | 57 | 1027.8 |
| 20260904054914 | 55 | 227 | 0.0 | 0.0 | 0.00 | 0.00 | 0.00 | 56 | 1027.9 |
| 20260904054410 | 55 | 219 | 0.0 | 0.0 | 0.00 | 0.00 | 0.00 | 56 | 1027.6 |
| 20260904053906 | 55 | 163 | 0.9 | 1.7 | 0.00 | 0.00 | 0.00 | 56 | 1027.4 |
| 20260904053404 | 57 | 224 | 0.9 | 0.9 | 0.00 | 0.00 | 0.00 | 55 | 1027.9 |
| 20260904052901 | 56 | 192 | 0.9 | 0.9 | 0.00 | 0.00 | 0.00 | 54 | 1027.5 |
| 20260904052357 | 57 | 196 | 0.9 | 0.9 | 0.00 | 0.00 | 0.00 | 54 | 1027.6 |
| 20260904051853 | 56 | 189 | 0.0 | 0.0 | 0.00 | 0.00 | 0.00 | 54 | 1027.8 |
| 20260904051348 | 57 | 213 | 0.0 | 0.0 | 0.00 | 0.00 | 0.00 | 54 | 1027.8 |
| 20260904050843 | 58 | 221 | 1.7 | 1.7 | 0.00 | 0.00 | 0.00 | 54 | 1027.5 |
| 20260904050340 | 57 | 180 | 1.7 | 1.7 | 0.00 | 0.00 | 0.00 | 53 | 1027.6 |
| 20260904045839 | 57 | 204 | 0.0 | 0.0 | 0.00 | 0.00 | 0.00 | 54 | 1027.5 |
| 20260904045335 | 56 | 201 | 0.0 | 0.0 | 0.00 | 0.00 | 0.00 | 55 | 1027.6 |
| 20260904044834 | 57 | 235 | 0.0 | 0.0 | 0.00 | 0.00 | 0.00 | 54 | 1027.8 |
| 20260904044331 | 57 | 201 | 0.0 | 0.0 | 0.00 | 0.00 | 0.00 | 54 | 1027.8 |
| 20260904043827 | 57 | 215 | 0.0 | 0.0 | 0.00 | 0.00 | 0.00 | 54 | 1027.8 |
| 20260904043323 | 57 | 218 | 0.0 | 0.0 | 0.00 | 0.00 | 0.00 | 53 | 1027.8 |
| 20260904042818 | 57 | 199 | 0.0 | 0.0 | 0.00 | 0.00 | 0.00 | 54 | 1028.0 |
| 20260904042314 | 57 | 213 | 0.0 | 0.0 | 0.00 | 0.00 | 0.00 | 54 | 1027.8 |
| 20260904041814 | 57 | 216 | 0.0 | 0.0 | 0.00 | 0.00 | 0.00 | 53 | 1027.9 |
| 20260904041310 | 57 | 194 | 0.0 | 0.9 | 0.00 | 0.00 | 0.00 | 53 | 1027.8 |
| 20260904040806 | 58 | 210 | 0.0 | 0.0 | 0.00 | 0.00 | 0.00 | 53 | 1028.0 |
| 20260904040301 | 58 | 199 | 0.0 | 0.0 | 0.00 | 0.00 | 0.00 | 53 | 1027.5 |
| 20260904035757 | 58 | 181 | 0.9 | 1.7 | 0.00 | 0.00 | 0.00 | 52 | 1028.0 |
| 20260904035253 | 59 | 201 | 0.0 | 0.0 | 0.00 | 0.00 | 0.00 | 52 | 1027.8 |
| 20260904034751 | 59 | 218 | 0.0 | 0.0 | 0.00 | 0.00 | 0.00 | 51 | 1028.1 |
| 20260904034247 | 59 | 180 | 0.9 | 1.7 | 0.00 | 0.00 | 0.00 | 51 | 1027.9 |
| 20260904033743 | 59 | 207 | 0.0 | 0.0 | 0.00 | 0.00 | 0.00 | 51 | 1027.5 |
| 20260904033240 | 60 | 210 | 0.0 | 0.0 | 0.00 | 0.00 | 0.00 | 50 | 1027.8 |
| 20260904032735 | 59 | 203 | 0.0 | 0.0 | 0.00 | 0.00 | 0.00 | 50 | 1027.9 |
| 20260904032235 | 60 | 210 | 0.0 | 0.0 | 0.00 | 0.00 | 0.00 | 50 | 1027.9 |
| 20260904031729 | 60 | 174 | 0.9 | 0.9 | 0.00 | 0.00 | 0.00 | 49 | 1027.5 |
| 20260904031225 | 60 | 178 | 0.9 | 0.9 | 0.00 | 0.00 | 0.00 | 49 | 1027.6 |
| 20260904030720 | 60 | 179 | 0.9 | 0.9 | 0.00 | 0.00 | 0.00 | 49 | 1027.5 |
| 20260904030215 | 61 | 210 | 0.0 | 0.0 | 0.00 | 0.00 | 0.00 | 49 | 1027.8 |
| 20260904025712 | 61 | 198 | 0.0 | 0.0 | 0.00 | 0.00 | 0.00 | 48 | 1027.9 |
| 20260904025207 | 61 | 184 | 0.9 | 0.9 | 0.00 | 0.00 | 0.00 | 47 | 1027.5 |
| 20260904024702 | 62 | 228 | 0.9 | 0.9 | 0.00 | 0.00 | 0.00 | 47 | 1027.4 |
| 20260904024157 | 62 | 182 | 0.9 | 0.9 | 0.00 | 0.00 | 0.00 | 47 | 1027.6 |
| 20260904023654 | 63 | 198 | 0.0 | 0.0 | 0.00 | 0.00 | 0.00 | 46 | 1027.3 |
| 20260904023149 | 63 | 214 | 0.0 | 0.0 | 0.00 | 0.00 | 0.00 | 47 | 1027.3 |
| 20260904022648 | 64 | 198 | 0.0 | 0.9 | 0.00 | 0.00 | 0.00 | 45 | 1027.1 |
| 20260904022145 | 64 | 198 | 0.0 | 0.9 | 0.00 | 0.00 | 0.00 | 45 | 1027.1 |
| 20260904021548 | 65 | 205 | 0.0 | 0.0 | 0.00 | 0.00 | 0.00 | 44 | 1027.0 |
| 20260904021043 | 65 | 205 | 0.0 | 0.0 | 0.00 | 0.00 | 0.00 | 44 | 1027.0 |
| 20260904020538 | 65 | 213 | 0.0 | 0.0 | 0.00 | 0.00 | 0.00 | 44 | 1026.6 |
| 20260904020033 | 66 | 185 | 0.0 | 0.0 | 0.00 | 0.00 | 0.00 | 45 | 1026.9 |
| 20260904015527 | 66 | 193 | 0.9 | 0.9 | 0.00 | 0.00 | 0.00 | 43 | 1026.9 |
| 20260904015026 | 67 | 223 | 0.0 | 0.0 | 0.00 | 0.00 | 0.00 | 43 | 1026.6 |
| 20260904014520 | 69 | 221 | 0.0 | 0.0 | 0.00 | 0.00 | 0.00 | 41 | 1026.6 |
| 20260904014016 | 68 | 224 | 0.9 | 0.9 | 0.00 | 0.00 | 0.00 | 39 | 1026.5 |
| 20260904013512 | 69 | 222 | 0.0 | 0.0 | 0.00 | 0.00 | 0.00 | 41 | 1027.0 |
| 20260904013009 | 71 | 223 | 0.0 | 0.0 | 0.00 | 0.00 | 0.00 | 37 | 1026.6 |
| 20260904012508 | 71 | 217 | 1.7 | 1.7 | 0.00 | 0.00 | 0.00 | 37 | 1026.6 |
| 20260904012002 | 71 | 224 | 1.7 | 1.7 | 0.00 | 0.00 | 0.00 | 36 | 1026.4 |
| 20260904011456 | 71 | 208 | 0.9 | 1.7 | 0.00 | 0.00 | 0.00 | 36 | 1026.5 |
| 20260904010952 | 72 | 220 | 0.9 | 0.9 | 0.00 | 0.00 | 0.00 | 36 | 1026.4 |
| 20260904010448 | 73 | 223 | 0.9 | 0.9 | 0.00 | 0.00 | 0.00 | 34 | 1026.2 |
| 20260904005943 | 74 | 222 | 0.0 | 0.9 | 0.00 | 0.00 | 0.00 | 34 | 1026.4 |
| 20260904005439 | 74 | 235 | 0.9 | 0.9 | 0.00 | 0.00 | 0.00 | 34 | 1026.6 |